www.pogodaiklimat.ru
ПОГОДА в Кросно

Архив погоды в Кросно (Польша)

Время
(UTC), дата
19 14.04
20 14.04
21 14.04
22 14.04
23 14.04
00 15.04
01 15.04
02 15.04
03 15.04
04 15.04
05 15.04
06 15.04
07 15.04
08 15.04
09 15.04
10 15.04
11 15.04
12 15.04
13 15.04
14 15.04
15 15.04
16 15.04
17 15.04
18 15.04
19 15.04
20 15.04
21 15.04
22 15.04
23 15.04
00 16.04
01 16.04
02 16.04
03 16.04
04 16.04
05 16.04
06 16.04
07 16.04
08 16.04
09 16.04
10 16.04
11 16.04
12 16.04
13 16.04
14 16.04
16 16.04
17 16.04
18 16.04
19 16.04
20 16.04
21 16.04
22 16.04
23 16.04
00 17.04
01 17.04
02 17.04
03 17.04
04 17.04
05 17.04
06 17.04
07 17.04
08 17.04
09 17.04
10 17.04
11 17.04
13 17.04
14 17.04
15 17.04
16 17.04
17 17.04
18 17.04
19 17.04
20 17.04
21 17.04
22 17.04
23 17.04
00 18.04
01 18.04
02 18.04
03 18.04
04 18.04
05 18.04
06 18.04
07 18.04
08 18.04
09 18.04
10 18.04
11 18.04
12 18.04
13 18.04
14 18.04
15 18.04
16 18.04
17 18.04
18 18.04
19 18.04
20 18.04
21 18.04
22 18.04
23 18.04
00 19.04
01 19.04
02 19.04
03 19.04
04 19.04
05 19.04
06 19.04
07 19.04
08 19.04
09 19.04
10 19.04
11 19.04
12 19.04
13 19.04
14 19.04
15 19.04
16 19.04
17 19.04
18 19.04
19 19.04
20 19.04
21 19.04
22 19.04
23 19.04
00 20.04
01 20.04
02 20.04
03 20.04
04 20.04
05 20.04
06 20.04
07 20.04
08 20.04
09 20.04
10 20.04
11 20.04
12 20.04
13 20.04
14 20.04
15 20.04
16 20.04
17 20.04
18 20.04
19 20.04
20 20.04
21 20.04
22 20.04
23 20.04
00 21.04
01 21.04
02 21.04
03 21.04
04 21.04
05 21.04
06 21.04
07 21.04
08 21.04
09 21.04
10 21.04
11 21.04
12 21.04
13 21.04
14 21.04
15 21.04
16 21.04
17 21.04
18 21.04
19 21.04
Ветер
(напр.,м/с)
Видим. Явления Облачность Т
(С)
Тd
(С)
f
(%)
Тe
(С)
Тes
(С)
Комфортность P
(гПа)
Po
(гПа)
Тmin
(С)
Tmax
(С)
R
(мм)
R24
(мм)
S
(см)
ЮЗ 2 30 км 9/5 2000 м
[Sc Ac trans]
+16.2 +10.9 71 +16 +16 1015.9 976.9
З 2 30 км зарница 6/4 1500 м
[Cb cap Ac trans]
+15.2 +11.2 77 +15 +15 1016.3 977.2
З 2 27 км в посл. час дождь н/о +14.3 +11.1 81 +14 +14 1016.1 976.9
СЗ 4 12 км сильн. дождь н/о +13.2 +11.1 87 +11 +11 1017.2 977.8
С 2 19 км в посл. час дождь н/о +12.4 +11.0 91 +11 +11 1016.5 977.0
штиль 0 14 км н/о +12.1 +11.0 93 +11 +11 1016.4 976.9 1
С 1 11 км н/о +11.8 +10.9 94 +12 +12 1015.7 976.1
Ю 1 3900 м дымка н/о +11.2 +10.4 95 +11 +11 1015.0 975.4
В 2 100 м туман н/о +10.2 +9.6 96 +9 +9 1014.0 974.3
В 3 100 м туман н/о +9.9 +9.4 97 +7 +7 1013.0 973.3
В 2 2800 м в посл. час туман 9/0
[Ac trans Cs]
+10.1 +9.6 97 +8 +9 1012.3 972.6
ЮВ 2 6000 м слаб. ливневой дождь 10/6 300 м
[Cb cap Ac As]
+10.6 +10.1 97 +9 +9 1011.1 971.6 +9.9 +16.9 2 1.5
СЗ 3 4300 м гроза, ливневой дождь 10/10 450 м
[Cb cap]
+11.2 +10.7 97 +9 +9 1011.8 972.3
СВ 1 {10} 11 км гроза без осадков {ливн. дождь} 9/4 200 м
[Cb cap Ac As]
+12.2 +11.7 97 +12 +15 1011.4 972.1
ЮВ 3 {10} 29 км {гроза, ливн. дождь} 9/4 1500 м
[Sc Ac As]
+13.9 +11.1 83 +13 +15 1010.5 971.4
ЮВ 2 26 км 9/1 300 м
[Cu med, cong Ac trans Ci sp]
+15.5 +11.7 78 +15 +22 1009.6 970.8
З 3 30 км 10/6 600 м
[Cb cap Ac As]
+16.0 +10.1 68 +16 +17 1009.3 970.6
С 2 {10} 12 км ливневой дождь {гроза} 10/10 600 м
[Cb cap]
+14.1 +11.4 84 +14 +14 1009.5 970.5 2
СЗ 1 13 км ливневой дождь 10/10 600 м
[Cb cap]
+13.2 +11.6 90 +13 +13 1008.8 969.7
В 1 8000 м слаб. ливневой дождь 10/10 1000 м
[Cb cap]
+13.1 +12.0 93 +13 +13 1007.8 968.7
штиль 0 12 км в посл. час ливневой дождь 10/6 90 м
[St Ac As]
+13.4 +12.5 94 +13 +13 1007.4 968.4
СЗ 2 3700 м слаб. ливневой дождь 10/10 1500 м
[Cb cap]
+12.7 +11.8 94 +12 +12 1007.2 968.1
Ю 2 3000 м ливневой дождь {туман} 10/10 600 м
[Cb cap]
+12.5 +11.9 96 +11 +11 1006.3 967.2
Ю 3 19 км в посл. час ливневой дождь {туман} 9/5 1000 м
[Cb cap Ac As]
+12.4 +11.0 91 +11 +11 1005.3 966.2 +10.6 +16.5 7
ЮЗ 1 26 км 10/0
[Ac As]
+12.3 +9.8 85 +12 +12 1004.4 965.4
Ю 2 22 км 10/0
[Ac As]
+11.6 +10.0 90 +10 +10 1003.5 964.4
ЮЗ 1 24 км н/о +11.6 +9.5 87 +11 +11 1003.2 964.1
СЗ 1 16 км н/о +11.1 +9.5 90 +11 +11 1003.1 963.9
Ю 2 20 км н/о +11.0 +9.9 93 +10 +10 1002.2 963.1
Ю 2 27 км н/о +10.8 +9.2 90 +9 +9 1001.6 962.5 0.0
Ю 2 25 км н/о +10.8 +9.1 89 +9 +9 1001.7 962.6
ЮЗ 3 24 км н/о +11.3 +9.4 88 +9 +9 1000.9 961.9
Ю 3 28 км в посл. час дождь н/о +11.2 +8.9 86 +9 +9 1001.1 962.0
ЮЗ 4-9 {9} 27 км слаб. ливневой дождь н/о +11.5 +8.0 79 +9 +9 1002.0 962.9
З 4 {10} 15 км слаб. дождь 10/10 1500 м
[Sc]
+9.4 +6.8 84 +7 +7 1003.2 963.8
Ю 2 {10} 35 км в посл. час дождь 10/10 1000 м
[Sc]
+9.2 +7.3 88 +7 +7 1002.5 963.1 +9.1 +12.5 1 8.2
В 1 35 км 10/10 2000 м
[Sc]
+9.9 +7.8 87 +9 +9 1002.4 963.1
З 3 35 км слаб. дождь 10/10 1000 м
[Sc]
+11.1 +7.0 76 +9 +9 1002.5 963.4
З 5 35 км слаб. дождь 10/10 1000 м
[Sc]
+9.5 +5.1 74 +6 +6 1003.8 964.4
СЗ 4 35 км слаб. дождь 10/10 400 м
[Sc]
+8.8 +5.4 79 +6 +6 1004.1 964.6
СЗ 4 26 км в посл. час дождь 10/10 480 м
[Cu Sc]
+8.6 +4.6 76 +6 +6 1004.3 964.8
СЗ 3 30 км {дождь} 10/10 600 м
[Cu Sc]
+8.2 +3.8 74 +6 +6 1004.5 964.9 0.0
СЗ 3 30 км в посл. час ливневой дождь 10/10 600 м
[Cu Sc]
+8.1 +3.2 71 +6 +6 1004.7 965.1
СЗ 3 30 км 10/10 1000 м
[Sc]
+8.1 +3.0 70 +6 +6 1004.9 965.3
СЗ 1 35 км 10/3 1000 м
[Sc Ac As]
+7.5 +1.6 66 +7 +7 1004.4 964.7
штиль 0 35 км 9/1 1000 м
[Sc Ac As]
+7.2 +1.5 67 +7 +7 1004.0 964.3
Ю 1 26 км {ливн. дождь} 9/1 1000 м
[Sc Ac As]
+6.9 +2.2 72 +6 +6 1004.9 965.1 +6.9 +11.2 0.0
Ю 1 18 км 8/5 1500 м
[Sc Ac trans]
+6.5 +3.1 79 +6 +6 1004.8 964.9
ЮВ 2 16 км 6/6 1000 м
[Sc]
+5.7 +3.4 85 +3 +3 1004.5 964.5
Ю 2 14 км н/о +5.3 +3.6 89 +3 +3 1004.4 964.4
ЮВ 1 16 км н/о +4.7 +2.7 87 +3 +3 1004.6 964.5
В 2 9000 м дымка н/о +3.8 +2.5 91 +1 +1 1004.9 964.7
ЮВ 1 14 км н/о +3.9 +2.7 92 +2 +2 1004.7 964.5
ЮВ 2 10 км н/о +2.9 +1.9 93 -0 -0 1004.0 963.7
ЮВ 2 10 км дымка н/о +1.4 +0.4 93 -2 -2 1004.0 963.4
В 4 200 м туман н/о +0.3 -0.4 95 -5 -5 1003.8 963.1
В 4 200 м туман н/о +0.7 0.0 95 -5 -5 1004.0 963.3
В 4 20 км туман на расстоянии 9/3 1000 м
[Sc Cs]
+1.2 +0.6 96 -4 -4 1004.3 963.7
В 2 20 км туман на расстоянии 9/9 1500 м
[Sc]
+2.4 +1.8 96 -1 -1 1003.9 963.5 +0.2 +6.9 0.0
ЮВ 1 30 км 9/9 2000 м
[Sc]
+4.7 +4.0 95 +3 +4 1003.7 963.6
ЮЗ 1 30 км 9/9 1000 м
[Cb calv]
+7.0 +3.1 76 +6 +7 1003.6 963.9
СЗ 3 35 км 9/9 1000 м
[Cb calv]
+6.5 +2.9 78 +4 +5 1003.8 964.0
З 3 35 км 9/5 1000 м
[Cu Sc Ci sp]
+8.9 +1.3 59 +7 +12 1003.5 964.0
СЗ 4 30 км 9/8 600 м
[Cu Sc Ci sp]
+8.6 +1.9 63 +6 +8 1003.5 964.0
СЗ 4 30 км 9/9 600 м
[Cu Sc]
+8.5 +2.1 64 +6 +6 1003.6 964.1
СЗ 5 30 км 9/9 1000 м
[Cb calv]
+8.5 +2.3 65 +5 +6 1003.6 964.1
СЗ 6-11 {11} 22 км 9/9 600 м
[Cb calv]
+7.2 +2.7 73 +3 +3 1004.2 964.5
СЗ 5 23 км 8/4 300 м
[Cb calv Ac trans Ci fib]
+6.8 +2.9 76 +3 +3 1004.5 964.7
СЗ 3 14 км 4/1 300 м
[Cb calv Ac trans Ci sp]
+5.4 +2.7 83 +2 +2 1005.2 965.2
СЗ 1 {11} 12 км 8/4 1000 м
[Sc Ac trans]
+5.1 +2.8 85 +4 +4 1006.1 966.0 +2.4 +9.5
СЗ 2 12 км 9/9 1000 м
[Sc]
+5.4 +3.1 85 +3 +3 1006.5 966.4
З 3 12 км 9/9 1500 м
[Sc]
+5.2 +2.5 83 +2 +2 1006.6 966.5
СЗ 3 14 км н/о +4.3 +2.0 85 +1 +1 1006.7 966.5
СЗ 3 25 км н/о +4.4 +1.9 84 +1 +1 1007.1 966.9
СЗ 3 30 км н/о +4.2 +1.6 83 +1 +1 1007.4 967.1
СЗ 3 30 км н/о +4.0 +1.2 82 0 0 1007.5 967.2
С 3 24 км н/о +3.8 +1.3 84 0 0 1007.7 967.3
СЗ 3 23 км н/о +3.7 +1.1 83 -0 -0 1007.9 967.5
СЗ 4 17 км н/о +3.4 +1.3 86 -1 -1 1008.0 967.6
СЗ 4 21 км в посл. час осадки н/о +3.3 +1.2 86 -1 -1 1007.9 967.5
СЗ 5 20 км 9/9 400 м
[Cu Sc]
+3.5 +1.0 84 -2 -2 1008.4 968.0
СЗ 5 24 км 9/6 330 м
[Cu med, cong]
+3.6 +0.8 82 -1 -1 1008.8 968.4 +3.3 +5.5 0.0 0.0
СЗ 5 {10} 30 км 9/4 600 м
[Cu med, cong Cc]
+4.9 -0.3 69 +1 +2 1008.7 968.5
СЗ 5 {11} 30 км 9/4 1000 м
[Cu med, cong Ci sp]
+6.6 -0.4 61 +3 +5 1008.5 968.5
СЗ 5 {11} 30 км 9/3 1000 м
[Cu hum Ci sp]
+7.6 -1.9 51 +4 +8 1008.4 968.6
СЗ 5 {12} 35 км 9/4 1000 м
[Cu med, cong Ci sp]
+7.9 -1.9 50 +5 +8 1008.4 968.6
СЗ 5-10 {11} 35 км 9/5 1500 м
[Cb calv Ci sp]
+7.6 -1.9 51 +4 +7 1008.7 968.8
С 5 {12} 35 км 9/6 1500 м
[Cu Sc Ac trans]
+8.5 -3.1 44 +6 +7 1008.6 968.9
СЗ 5-11 {11} 35 км 9/5 1500 м
[Cu Sc Ac trans]
+8.4 -2.9 45 +5 +7 1008.9 969.1
СЗ 6-12 {12} 30 км 8/4 1500 м
[Cu Sc Ac und]
+8.7 -2.9 44 +5 +6 1008.9 969.2
С 4-9 {12} 30 км 6/4 1000 м
[Cu Sc Ac trans Ci sp]
+8.5 -1.9 48 +6 +7 1009.2 969.4
СЗ 5 {10} 29 км 4/3 2000 м
[Cu med, cong Ci fib]
+7.9 -3.6 44 +5 +5 1009.7 969.8
СЗ 4 35 км 5/4 1500 м
[Cu med, cong Ci fib]
+6.8 -3.2 49 +4 +4 1010.2 970.2
СЗ 3 {12} 30 км 6/3 1500 м
[Sc diur, vesp Ac trans]
+5.3 -2.8 56 +2 +2 1011.0 970.7 +3.5 +9.2
СЗ 3 30 км 4/1 1500 м
[Sc Ac trans]
+4.5 -2.2 62 +1 +1 1011.6 971.2
СЗ 3 28 км 1/1 2000 м
[Sc]
+3.4 -2.2 67 -0 -0 1012.1 971.5
СЗ 3 29 км н/о +2.7 -2.2 70 -1 -1 1012.5 971.8
З 2 26 км н/о +2.7 -1.8 72 -0 -0 1012.8 972.1
З 3 21 км н/о +2.5 -0.4 81 -2 -2 1013.1 972.3
З 4 21 км н/о +2.2 -0.6 82 -3 -3 1013.0 972.2
З 3 22 км н/о +2.2 -0.4 83 -2 -2 1013.1 972.3
З 3 19 км н/о +2.5 +0.2 85 -2 -2 1013.2 972.4
З 4 20 км н/о +2.5 +0.1 84 -2 -2 1013.0 972.2
З 3 15 км в посл. час дождь н/о +2.3 +0.2 86 -2 -2 1013.1 972.3
З 3 12 км слаб. ливневой дождь 10/10 200 м
[Cb cap]
+2.4 +0.5 87 -2 -2 1013.4 972.6
З 4 15 км в посл. час ливневой дождь 9/9 360 м
[Cb calv]
+3.2 +0.4 82 -1 -1 1013.4 972.7 +2.0 +5.3 0.0 0.0
З 4 18 км 9/9 420 м
[Cu med, cong]
+3.9 -0.1 75 -0 0 1013.4 972.8
З 4 {9} 27 км 9/9 600 м
[Cu Sc]
+5.0 -0.6 67 +1 +2 1013.0 972.6
З 2-9 {9} 30 км 9/9 600 м
[Cu med, cong]
+6.8 -0.7 59 +5 +6 1012.3 972.2
З 4 {10} 35 км в посл. час крупа {ливн. снег} 8/6 1000 м
[Cb cap Ci sp]
+7.7 -1.3 53 +5 +8 1011.8 971.8
З 3 {8} 30 км 9/6 1000 м
[Cb cap Ci sp]
+8.8 -3.1 43 +7 +11 1010.8 971.0
З 3 {10} 35 км в посл. час ливневой дождь 9/8 1000 м
[Cu med, cong Ci sp]
+8.8 -1.1 50 +7 +9 1010.5 970.7 0.0
ЮЗ 4 {12} 35 км 9/3 1000 м
[Cb calv Ac trans Ci sp]
+9.5 -1.6 46 +7 +10 1009.8 970.2
Ю 4 35 км 9/4 1000 м
[Cb cap Ac trans Cs]
+8.8 -1.3 49 +6 +8 1009.2 969.5
Ю 2 {12} 35 км в посл. час ливневой дождь 9/4 1000 м
[Cb cap Ac trans Cs]
+7.8 +0.3 59 +6 +8 1008.9 969.1
Ю 4 {9} 35 км 9/3 1000 м
[Cb cap Ac As]
+9.0 -3.2 42 +7 +7 1008.0 968.4
ЮЗ 5-10 {10} 35 км 9/3 1000 м
[Cb cap Ac trans Ci sp]
+8.6 -3.0 44 +6 +6 1007.9 968.2
Ю 4 {12} 35 км {ливн. дождь} 8/1 1500 м
[Sc Ac trans Ci sp]
+7.7 -2.9 47 +5 +5 1008.2 968.4 +3.0 +10.1 0.1
Ю 3 30 км 4/0
[Ac trans Ci sp]
+6.7 -2.7 51 +4 +4 1008.6 968.6
Ю 2 30 км 3/0
[Ac trans Ci sp]
+6.1 -2.3 55 +4 +4 1008.4 968.3
Ю 3 30 км н/о +5.6 -2.3 57 +3 +3 1008.3 968.2
Ю 3 35 км н/о +5.5 -2.6 56 +3 +3 1008.2 968.1
Ю 4 35 км н/о +5.4 -2.7 56 +2 +2 1008.1 968.0
Ю 4-9 {9} 35 км н/о +5.9 -2.2 56 +3 +3 1008.0 967.9
Ю 3 {10} 35 км н/о +6.2 -1.9 56 +4 +4 1007.9 967.9
Ю 5 35 км н/о +6.1 -1.3 59 +2 +2 1008.3 968.2
Ю 3 {11} 35 км н/о +5.8 -0.9 62 +3 +3 1008.2 968.1
Ю 3 30 км н/о +5.5 -1.0 63 +3 +3 1008.5 968.4
Ю 3 {9} 30 км 10/10 2000 м
[Sc]
+6.1 -0.6 62 +3 +3 1008.9 968.8
Ю 3 {11} 30 км 9/9 1500 м
[Sc]
+6.3 -0.7 61 +4 +4 1009.4 969.3 +5.1 +7.7 0.1
Ю 3 30 км 9/5 2000 м
[Sc As trans]
+7.0 -0.7 58 +4 +6 1009.3 969.3
Ю 4 35 км 9/0
[Ac As]
+8.4 -1.2 51 +6 +8 1009.4 969.6
Ю 4-9 {10} 35 км 9/0
[Ac As]
+9.4 -1.7 46 +7 +10 1009.4 969.8
Ю 4 {11} 35 км 9/3 1000 м
[Cu med, cong Ac As]
+9.8 -3.2 40 +8 +10 1009.6 970.0
Ю 6-12 {12} 35 км 10/5 1500 м
[Cu med, cong Ac As]
+10.5 -2.6 40 +8 +9 1009.6 970.1
Ю 7-12 {14} 30 км 9/9 2000 м
[Cu med, cong]
+10.0 -1.7 44 +7 +7 1010.2 970.6
Ю 5-10 {12} 30 км 8/8 1000 м
[Cu Sc]
+10.7 -1.4 43 +8 +9 1010.2 970.7
Ю 5-10 {12} 35 км 8/3 1000 м
[Cu med, cong Ac trans]
+11.3 -1.8 40 +9 +11 1009.9 970.5
Ю 5 {12} 35 км 8/4 1000 м
[Cb calv Ac trans Ci sp]
+11.9 -1.6 39 +10 +11 1010.2 970.9
З 5-10 {10} 30 км 8/6 1500 м
[Cb calv Ci sp]
+8.7 +1.4 60 +6 +6 1011.4 971.6
СЗ 3 35 км 6/4 1500 м
[Cb calv Ac trans]
+6.5 +1.8 72 +4 +4 1012.4 972.2
СЗ 2 {12} 35 км 5/4 1500 м
[Sc Ac trans]
+5.9 +1.8 75 +4 +4 1013.0 972.7 +5.8 +12.6
З 2 22 км 6/0
[Ac trans Ci sp]
+5.9 +2.2 77 +4 +4 1013.6 973.3
СЗ 2 20 км 4/0
[Ac trans Ci sp]
+4.8 +2.3 84 +2 +2 1013.9 973.4
СВ 1 22 км н/о +3.9 +1.8 86 +2 +2 1014.3 973.7
З 2 20 км н/о +3.9 +1.9 87 +1 +1 1014.5 973.9
СЗ 1 6000 м дымка н/о +3.4 +1.9 90 +2 +2 1014.8 974.1
З 2 5000 м дымка н/о +3.5 +2.3 92 0 0 1014.7 974.0
СЗ 2 2100 м дымка н/о +3.0 +2.1 94 -0 -0 1014.6 973.9
СЗ 1 2600 м в посл. час туман н/о +3.6 +2.9 95 +2 +2 1014.7 974.0
СЗ 1 2500 м дымка н/о +4.0 +3.3 95 +2 +2 1014.4 973.8
СЗ 3 4000 м дымка н/о +4.4 +3.7 95 +1 +1 1014.5 974.0
СЗ 2 2200 м дымка 10/10 60 м
[St]
+4.5 +3.8 95 +2 +2 1014.8 974.3
СЗ 2 2000 м дымка 10/10 30 м
[St]
+4.7 +4.0 95 +2 +2 1015.0 974.5 +3.0 +6.1
З 3 2000 м морось 10/10 60 м
[St]
+3.9 +3.2 95 -0 -0 1015.3 974.7
З 3 2500 м слаб. морось 10/10 60 м
[St]
+3.3 +2.6 95 -1 -1 1015.6 974.9
З 4 3000 м слаб. морось 10/10 90 м
[St]
+3.5 +2.8 95 -1 -1 1016.1 975.4
З 5 14 км в посл. час морось 10/10 120 м
[St]
+3.5 +2.8 95 -2 -2 1016.1 975.4
СЗ 4 19 км 10/10 150 м
[St]
+4.0 +3.1 94 -1 -1 1016.4 975.7
З 5 7000 м в посл. час дождь {морось} 10/10 90 м
[St]
+3.4 +2.5 94 -2 -2 1016.5 975.7 0.4
З 4 6000 м слаб. дождь 10/9 90 м
[Frnb]
+3.2 +2.3 94 -2 -1 1016.4 975.6
СЗ 4 7000 м слаб. морось {дождь} 10/10 90 м
[St]
+3.2 +2.3 94 -2 -2 1016.5 975.7
СЗ 4 9000 м слаб. дождь {морось} 10/9 150 м
[Frnb]
+3.4 +2.4 93 -1 -1 1016.8 976.0
СЗ 3 10 км слаб. морось {дождь} 10/10 180 м
[St]
+3.6 +2.1 90 -0 -0 1016.7 976.0
СЗ 2 9000 м слаб. морось 10/10 150 м
[St]
+3.4 +2.2 92 0 0 1017.2 976.4
СЗ 2 8000 м слаб. морось {дождь} 10/10 180 м
[St]
+3.6 +2.6 93 +1 +1 1017.8 977.0 +3.0 +4.8 0.4
С 2 7000 м слаб. морось 10/10 180 м
[St]
+3.6 +2.3 91 +1 +1 1018.2 977.4
Местоположение метеостанции Кросно (Польша): широта 49.68 долгота 21.75 высота над уровнем моря 278 м.
В архиве по умолчанию представлена погода в Кросно за последнюю неделю. Архивные данные за месяц целиком и за предыдущие месяцы, начиная с января 2011 года, Вы можете получить, выбрав интересующий диапазон дат из раскрывающегося списка и нажав кнопку "Найти!".
*Определитесь, кто Вы:
Внимание! Время в таблицах - всемирное. Для получения местного времени необходимо прибавить поправку, которая равна 1 ч.
Некоторые строки с данными для отдельных станций могут быть выделены курсивом. Это означает, что фактические данные отсутствуют по различным причинам, а приведенные значения являются расчетными модельными данными для данного пункта наблюдений.
Смотрите также архив погоды в соседних городах и на ближайших метеорологических станциях:
Партнеры нашего сайта:      
Пояснения к столбцам:
  • Ветер - указаны скорость ветра в м/с - средняя за 10 мин, порывы в срок и между сроками (в фигурных скобках) и направление, откуда дует ветер: С - северный,
  • СВ - северо-восточный, В - восточный, ЮВ - юго-восточный, Ю - южный, ЮЗ - юго-западный, З - западный, СЗ - северо-западный.
  • Видимость - горизонтальная дальность видимости в метрах или километрах. При видимости от 1 до 10 км при отсутствии осадков обычно наблюдается дымка, при ухудшении видимости до 1 км и менее - туман. В сухую погоду видимость может ухудшаться дымом, пылью или мглою.
  • Явления - указаны атмосферные явления, наблюдавшиеся в срок или в последний час перед сроком; фигурными скобками обозначены явления, наблюдавшиеся между сроками (за 1-3 часа до срока); квадратными скобками обозначены град или гололедные отложения с указанием их диаметра в мм.
  • Облачность - указаны через наклонную черту общая и нижняя облачность в баллах и высота нижней границы облаков в метрах; квадратными скобками обозначены формы облаков: Ci - перистые, Cs - перисто-слоистые, Cc - перисто-кучевые, Ac - высококучевые, As - высокослоистые, Sc - слоисто-кучевые, Ns - слоисто-дождевые, Cu - кучевые, Cb - кучево-дождевые. Подробнее классификацию облаков см. в Атласе облаков (PDF).
  • T - Температура воздуха - температура, измеренная на высоте 2 м над землей.
  • Td - Температура точки росы - температура, при понижении до которой содержащийся в воздухе водяной пар достигнет насыщения.
  • f - Относительная влажность воздуха - влажноcть воздуха, измеренная на высоте 2 м над землей.
  • Te - Эффективная температура - температура, которую ощущает одетый по сезону человек в тени. Характеристика душности погоды. При расчете учитывается влияние влажности воздуха и скорости ветра на теплоощущения человека.
  • Tes - Эффективная температура на солнце - температура, которую ощущает человек, с поправкой на солнечный нагрев. Характеристика знойности погоды. Зависит от высоты солнца над горизонтом, облачности и скорости ветра. Ночью, в пасмурную погоду, а также при ветре 12 м/с и более поправка равна нулю.
  • P - Атмосферное давление - приведенное к уровню моря атмосферное давление.
  • Po - Атмосферное давление - измеренное на уровне метеостанции атмосферное давление.
  • Tmin - Минимальная температура - минимум температуры воздуха на высоте 2 м над землей.
  • Tmax - Максимальная температура - максимум температуры воздуха на высоте 2 м над землей.
  • R - Количество осадков - Количество выпавших осадков за период времени, мм. При наведении курсора мыши на число - период времени, за который выпало указанное количество осадков.
  • R24 - Количество осадков - Количество выпавших осадков за 24 часа, мм.
  • S - Снежный покров - Высота снежного покрова, см. При наведении курсора мыши на число - состояние снежного покрова и степень покрытия местности в баллах.